Location: Bukovany
(49.8234°N, 14.6297°E)
Time: 16:37:05
(UTC+00:00)

Cosmos 2082 Rocket - Pass Details

Date: 17 November 2025
Orbit: 834 x 851 km, 71.0° (Epoch: 12 December)

Event Time Altitude Azimuth Distance (km) Brightness Sun altitude
Rises 16:02:22 0° 333° (NNW) 3,394 5.4 -7.7°
Reaches altitude 10° 16:05:00 10° 342° (NNW) 2,455 4.6 -8.1°
Maximum altitude 16:10:14 38° 50° (NE) 1,254 2.7 -8.9°
Drops below altitude 10° 16:15:26 10° 118° (ESE) 2,445 4.2 -9.7°
Sets 16:18:02 0° 126° (SE) 3,377 5.0 -10.1°
